Temp
4 3 3 3 3 3 3 2 2 2 1 1 0 0 0 0 -0 -0 -0 -0 -0 0 0 1 1 1 2
3 3 3 3 3 2 2 1 1 1 0 -0 -0 -1 -1 -1 -1 -1 -1 -1 -1 -1 -1 -0 0 1 1
2 2 2 2 2 2 1 1 1 1 1 0 -0 -1 -1 -1 -1 -2 -2 -2 -2 -1 -1 -0 -0 -0 -0
3 2 2 1 1 1 1 1 1 1 0 -0 -0 -0 -1 -1 -1 -1 -3 -2 -2 -1 -1 -1 -1 -1 -1
2 1 1 0 1 -0 -0 -0 0 -1 -0 -1 0 -1 -2 -2 -2 -2 -3 -3 -2 -2 -2 -2 -2 -2 -1
0 0 0 0 -1 -1 -1 -2 -2 -2 -2 -1 -2 -2 -2 -2 -2 -4 -3 -3 -2 -3 -3 -3 -2 -2 -2
2 0 -1 -1 -1 -1 -2 -2 -2 -2 -3 -3 -2 -3 -2 -2 -2 -4 -3 -3 -4 -4 -3 -3 -3 -3 -3
1 -0 -1 -1 -1 -2 -2 -3 -2 -2 -4 -5 -4 -5 -4 -2 -2 -3 -3 -4 -4 -4 -4 -4 -4 -3 -3
-1 -1 -2 -2 -2 -2 -3 -4 -4 -4 -5 -6 -5 -6 -5 -4 -4 -4 -5 -5 -5 -5 -5 -5 -4 -4 -5
-2 -2 -3 -3 -3 -3 -4 -5 -6 -6 -5 -6 -6 -6 -7 -6 -6 -6 -5 -4 -6 -4 -5 -5 -5 -5 -5
-2 -3 -4 -4 -4 -4 -5 -5 -6 -6 -5 -7 -7 -7 -7 -7 -7 -6 -6 -6 -5 -5 -5 -5 -6 -6 -6
-3 -4 -4 -5 -5 -5 -5 -6 -6 -6 -6 -6 -8 -7 -8 -8 -7 -7 -7 -7 -6 -6 -6 -6 -6 -7 -6
-4 -5 -5 -6 -6 -6 -6 -6 -6 -6 -6 -7 -7 -7 -8 -9 -8 -8 -7 -7 -7 -6 -7 -7 -7 -7 -7
-5 -6 -6 -6 -7 -7 -7 -7 -7 -5 -6 -7 -7 -7 -8 -8 -8 -9 -8 -8 -7 -6 -7 -8 -8 -7 -7
-6 -6 -7 -7 -7 -7 -8 -8 -8 -8 -7 -6 -7 -8 -7 -7 -8 -8 -7 -8 -7 -7 -8 -8 -8 -8 -7
-7 -7 -7 -7 -8 -8 -8 -8 -8 -8 -8 -8 -8 -8 -9 -8 -7 -7 -8 -8 -8 -8 -8 -8 -8 -8 -8
-7 -7 -7 -8 -8 -8 -8 -8 -8 -8 -8 -8 -8 -9 -10 -9 -8 -7 -8 -8 -8 -9 -8 -8 -8 -8 -8
Height
874 878 882 881 883 883 885 886 887 885 885 883 881 879 876 875 872 870 868 866 863 860 859 856 854 850 846
871 875 880 882 882 881 883 886 885 885 883 881 878 876 874 872 869 867 864 860 858 856 853 852 850 849 844
866 871 876 881 881 881 883 882 883 882 880 877 875 875 872 868 866 864 860 857 856 853 852 848 845 842 840
865 868 874 878 878 878 879 879 878 878 876 876 875 872 869 867 863 859 855 853 851 849 846 845 842 837 834
862 866 871 875 876 878 878 874 873 873 873 872 871 869 866 863 859 854 851 849 848 846 843 838 837 833 829
861 862 866 871 875 877 876 873 871 871 870 867 868 866 864 859 854 850 849 847 845 841 839 834 831 828 825
857 859 865 870 873 874 873 871 870 869 868 865 863 862 858 855 851 848 846 844 842 838 833 829 826 823 820
858 860 864 866 869 870 870 869 868 865 865 865 860 857 853 848 845 847 846 842 837 833 828 825 821 818 814
859 861 863 865 865 866 866 869 864 862 862 862 859 853 848 845 844 843 843 839 833 829 825 820 816 812 806
860 862 861 862 864 864 865 865 867 863 862 862 857 854 847 842 841 839 838 835 830 824 820 816 812 806 800
859 860 860 860 861 863 865 863 864 864 861 860 856 854 851 841 835 834 834 830 824 819 816 812 807 803 796
859 859 859 860 861 863 865 863 862 860 857 857 854 851 847 841 837 831 829 824 819 814 810 805 800 795 792
856 858 860 861 861 863 864 861 858 855 854 853 851 848 845 842 837 830 823 817 814 810 804 799 793 788 783
856 857 860 862 863 862 860 857 852 850 851 850 848 845 841 838 834 826 824 819 809 804 799 793 789 785 780
856 859 861 861 861 860 858 854 853 850 847 845 844 842 839 834 827 823 817 812 807 801 795 788 783 778 774
856 857 858 859 858 856 854 853 851 848 847 845 841 836 831 828 824 818 814 808 803 798 793 786 776 772 768
854 856 857 856 854 852 851 850 849 848 846 844 840 836 830 825 820 820 812 803 798 792 788 783 775 766 762
Wind_Speed
12 18 14 10 7 4 4 3 3 6 7 9 8 9 12 12 13 13 14 17 18 17 19 21 22 22 21
17 15 11 9 6 3 4 4 7 10 10 7 9 11 13 13 14 15 17 16 16 19 21 21 21 22 22
13 12 7 6 4 3 4 6 9 11 10 7 11 14 15 17 16 15 16 17 19 21 20 19 19 22 25
11 11 8 6 5 4 4 7 9 11 5 8 17 17 18 17 15 18 19 19 18 17 16 19 23 23 24
12 10 9 6 4 4 5 8 12 2 9 19 20 21 19 16 20 22 19 15 14 15 21 22 23 24 26
10 10 8 7 6 4 4 6 4 3 18 26 22 21 19 24 25 18 14 13 14 22 22 23 24 25 28
12 11 10 7 4 2 4 5 9 15 16 17 18 18 24 25 20 13 11 13 21 22 23 23 26 27 26
8 10 8 5 2 3 4 8 14 14 10 6 14 17 27 19 8 9 11 22 22 24 24 26 26 24 25
10 9 6 2 1 2 5 8 7 7 9 9 14 22 18 13 5 7 21 23 25 24 26 24 22 25 29
8 6 5 2 3 5 5 5 5 6 2 13 15 15 10 7 10 23 26 28 27 27 25 20 25 27 31
9 7 4 3 3 4 5 5 6 9 13 15 11 16 9 15 18 27 14 32 29 28 23 29 26 26 29
8 5 3 3 4 3 3 5 8 13 16 13 11 16 12 18 18 20 26 28 25 24 32 33 33 28 24
7 4 3 4 3 1 4 8 12 11 9 9 8 13 15 17 19 22 27 21 18 32 35 36 35 32 30
6 4 2 2 2 5 9 12 16 18 13 8 12 15 20 21 22 27 25 17 34 37 36 34 30 29 29
6 5 3 3 5 6 9 12 14 16 20 19 20 21 17 19 24 24 30 31 33 34 32 32 29 28 32
7 4 1 3 5 9 10 11 14 15 17 21 24 26 20 14 13 24 27 27 33 32 31 26 33 30 31
5 3 3 6 9 9 10 11 13 15 18 21 21 21 14 9 22 18 30 35 31 27 26 26 31 36 32
Wind_Direction
161 176 182 190 203 237 285 296 323 340 341 345 356 353 345 337 334 327 329 328 327 327 322 321 320 320 318
157 165 189 199 218 234 254 278 326 323 324 334 352 347 339 332 329 328 325 323 319 320 321 317 315 315 315
147 163 165 196 202 208 242 295 309 316 319 319 339 336 331 327 322 318 321 320 320 318 315 314 314 314 315
135 148 161 177 201 230 272 293 317 323 314 329 329 330 328 317 320 325 325 322 319 317 317 317 315 315 314
143 148 166 179 199 230 273 314 331 302 316 325 329 331 331 328 327 329 321 322 322 324 321 318 318 317 314
157 152 158 175 192 226 304 338 342 323 326 319 331 328 331 329 330 323 328 331 327 326 324 322 319 317 314
154 154 164 177 194 252 303 315 302 310 319 314 327 325 331 333 331 331 338 337 326 325 323 321 317 313 310
151 152 158 168 227 287 315 313 308 326 330 284 317 323 332 338 336 342 332 331 327 327 326 319 313 312 311
139 140 137 145 194 310 325 333 337 323 324 342 317 325 330 334 317 313 323 328 330 325 321 319 319 317 311
144 145 149 119 2 350 333 338 326 315 339 340 319 337 318 274 308 322 329 335 325 328 325 321 322 319 317
149 142 120 62 18 353 323 314 302 280 310 327 299 315 303 308 316 321 308 320 330 333 331 327 321 318 314
153 127 81 41 20 356 312 304 299 301 314 311 291 311 309 310 304 306 308 320 326 327 328 329 326 322 314
145 119 65 30 24 323 306 310 310 325 328 312 314 327 316 292 290 303 316 313 321 324 327 326 321 321 313
143 118 89 80 8 348 349 345 346 342 351 357 342 333 319 306 304 298 309 306 317 325 323 315 312 310 307
139 143 110 38 26 2 355 353 349 346 348 350 346 336 321 316 305 310 319 314 318 314 314 309 309 310 315
151 145 120 321 342 339 345 343 344 349 342 339 338 337 332 322 302 314 314 310 310 310 313 306 307 311 310
171 198 306 320 327 337 342 351 353 344 335 337 343 346 329 318 313 316 311 313 313 308 307 303 299 304 307